Location: Elamarru
(16.3695°N, 80.9269°E)
Time: 15:01:47
(UTC+00:00)

Daily predictions for brighter satellites

Satellite Brightness Start Highest point End
(mag) Time Altitude Azimuth Time Altitude Azimuth Time Altitude Azimuth
Ariane 3 Deb 4.5 13:19:33 10° SW 13:23:22 31° SSE 13:33:23 10° E
Cosmos 1867 4.0 13:23:12 10° N 13:28:26 47° ENE 13:33:37 10° SE
NOSS 2-3 (E) 3.4 13:24:36 10° SSW 13:29:14 78° ESE 13:33:01 10° NNE
USA 59 Rocket 2.3 13:31:48 10° SE 13:32:58 11° ESE 13:34:03 10° ESE
Cosmos 1844 Rocket 3.6 13:27:40 10° SSW 13:33:05 54° WNW 13:38:30 10° N
Cosmos 1125 Rocket 4.4 13:30:57 10° NNE 13:35:26 29° ENE 13:39:53 10° SE
Cosmos 2142 Rocket 4.5 13:29:29 10° S 13:35:35 71° E 13:41:39 10° N
Radarsat Rocket 4.4 13:29:09 10° SSE 13:36:23 68° ENE 13:42:45 10° N
Milstar 3 Cent rocket 4.2 13:31:28 10° WNW 13:37:10 25° N 13:41:16 10° NE
Delta 128 4.4 13:34:17 10° NW 13:38:41 42° NNE 13:42:54 10° E
BlueWalker 3 1.6 13:41:20 10° NNW 13:44:52 80° NE 13:48:22 10° SE
NOSS 3-2 (C) 3.1 13:40:54 10° SSW 13:45:32 73° WNW 13:50:26 10° NNE
SJ-6B 3.3 13:43:32 10° SE 13:46:37 32° ENE 13:49:43 10° NNE
USA 267 3.4 13:41:35 10° SE 13:48:02 66° NE 13:54:29 10° NNW
IUS-17 SRM-1 3.9 13:38:14 10° WNW 13:50:28 64° NNE 13:53:18 12° E
Cosmos 2344 4.5 13:41:57 10° S 13:51:09 34° ESE 13:58:16 10° NE
PSLV R/B 3.6 13:47:45 10° SSE 13:51:42 51° ENE 13:55:36 10° N
USA 238 DEB 4.3 13:56:49 10° SSE 14:01:12 22° ESE 14:05:41 10° ENE
USA 238 4.4 13:57:06 10° SSE 14:01:26 22° ESE 14:05:51 10° ENE
GPS 2-12 Rocket1 3.1 13:56:59 10° W 14:01:28 76° N 14:05:50 10° ENE
Terra 3.9 14:02:19 10° ENE 14:02:24 10° ENE 14:02:29 10° ENE
SL-14 R/B 4.1 14:01:11 16° SE 14:03:18 26° E 14:06:25 10° NE
ATLAS 5 CENTAUR R/B 1.7 14:11:20 29° SE 14:11:52 33° ESE 14:15:12 10° NE
SWIFT 2.8 14:09:29 10° SW 14:11:59 23° SSE 14:11:59 23° SSE
Meteor 2-20 Rocket 4.3 14:06:29 10° S 14:12:11 70° E 14:18:03 10° N
Cosmos 44 Rocket 3.8 14:08:06 10° N 14:12:52 44° ENE 14:15:29 23° SE
ATLAS 2AS CENTAUR R/B 2.7 14:10:20 10° NNW 14:17:10 83° ENE 14:22:45 17° SSE
Aurora 2 Rocket 3.8 14:12:17 10° W 14:18:27 49° NNW 14:22:57 10° ENE
Cosmos 1066 Rocket 4.3 14:13:08 10° S 14:18:47 86° W 14:24:33 10° N
SAR-Lupe-4 4.2 14:16:16 10° S 14:19:42 54° W 14:23:10 10° NNW
Cosmos 1151 Rocket 4.2 14:23:15 23° E 14:23:15 23° E 14:26:21 10° NE
Hubble Space Telescope 1.5 14:22:24 10° NW 14:25:53 37° NNE 14:27:21 26° ENE
Cosmos 1943 Rocket 4.0 14:31:09 14° ENE 14:31:09 14° ENE 14:32:24 10° ENE
SL-16 R/B 4.0 14:30:49 10° NW 14:35:34 28° WSW 14:40:19 10° SSW
Meteor 2-10 Rocket 4.1 14:30:36 10° NNE 14:35:51 41° E 14:37:13 35° ESE
Cosmos 1943 3.1 14:33:19 10° NNW 14:38:55 86° ENE 14:41:51 30° SSE
CSL-04 Rocket 3.5 14:36:41 26° SSE 14:39:45 80° ENE 14:45:01 10° N
CZ-4C R/B 3.3 14:31:56 10° NNW 14:40:22 74° ENE 14:45:55 28° SE
IUS-26 SRM-1 2.4 14:37:38 10° WNW 14:41:42 58° SW 14:41:42 58° SW
Sich 1 4.4 14:44:34 10° NNE 14:46:56 24° NE 14:46:56 24° NE
CZ-3 Stage 3 1.6 14:39:51 10° WNW 14:48:59 72° NNE 14:49:47 55° E
SPOT 5 3.5 14:47:42 20° S 14:50:50 54° W 14:55:44 10° NNW
CSL-04 Debris 4.2 14:55:47 34° S 14:58:14 75° WSW 15:03:40 10° NNW
CZ-4B R/B 4.0 15:03:20 62° NW 15:03:20 62° NW 15:06:28 10° NNW
Meteor 1-31 Rocket 3.8 15:08:52 38° NNW 15:08:52 38° NNW 15:11:07 10° NNW
ADEOS 4.0 15:15:59 48° NE 15:15:59 48° NE 15:20:13 10° N
Feng Yun 1-1 Rocket 4.3 15:18:43 61° SSW 15:19:37 74° WSW 15:25:20 10° NNW
Cosmos 1655 Rocket 3.9 15:14:11 10° N 15:20:35 86° E 15:21:30 68° SSE
CZ-4 R/B 2.8 15:22:21 32° W 15:22:21 32° W 15:25:14 10° NNW
USA 59 Rocket 1.2 15:16:31 10° SW 15:21:52 45° WNW 15:25:45 10° N
CZ-4B DEB 4.3 15:22:33 62° SW 15:23:12 68° WSW 15:28:39 10° NNW
PAYLOAD B 4.2 15:23:12 75° SSW 15:23:35 79° WSW 15:29:10 10° NNW
CZ-4B R/B 3.2 15:31:10 75° NNW 15:31:10 75° NNW 15:36:05 10° NNW
ERS-1 Rocket 3.6 15:31:30 50° W 15:31:30 50° W 15:36:20 10° NNW
Cosmos 1553 Rocket 4.4 15:37:06 44° SW 15:38:52 59° W 15:45:05 10° N
Terra 2.9 15:40:13 40° WNW 15:40:13 40° WNW 15:43:56 10° NNW
IRS-1A Rocket 4.5 15:41:26 72° NW 15:41:26 72° NW 15:46:40 10° NNW
Okean O Rocket 3.8 15:46:35 20° N 15:46:35 20° N 15:47:57 10° N
Cosmos 1607 4.5 15:40:28 10° NNW 15:45:34 51° NNE 15:45:34 51° NNE
Cosmos 1603 4.5 15:44:57 10° NNW 15:49:45 46° W 15:49:45 46° W
Cosmos 2278 Rocket 3.6 16:01:48 31° N 16:01:48 31° N 16:04:42 10° N
FALCON 9 R/B 4.4 15:52:03 10° WNW 16:01:57 73° SSW 16:10:05 51° SE
Cosmos 1943 Rocket 3.6 16:12:31 33° WNW 16:12:31 33° WNW 16:17:02 10° N
Milstar 3 Cent rocket 4.0 16:11:46 10° NW 16:13:40 22° NW 16:13:40 22° NW
Intelsat 5-1 Rocket 4.5 16:51:40 10° WNW 17:10:37 65° NNW 17:10:37 65° NNW
Resurs 1-4 Rocket 4.1 20:45:23 10° NNE 20:47:33 24° NE 20:47:33 24° NE
Centaur D AC-29 3.5 20:57:20 24° NNE 20:57:20 24° NNE 20:58:52 10° NE
ATLAS 3B R/B 4.0 21:08:47 33° NW 21:08:47 33° NW 21:14:07 10° N
ALOS 4.3 21:18:35 10° N 21:20:10 22° N 21:20:10 22° N
Palapa 6 Rocket 4.2 21:31:17 71° NNW 21:31:24 71° NNW 21:38:56 10° ENE
Delta 202 4.0 21:33:50 73° NNE 21:33:50 73° NNE 21:40:51 10° E
Cosmos 2227 Rocket 4.4 21:30:05 10° NNE 21:34:24 22° ENE 21:38:42 10° ESE
CZ-2D R/B 3.2 21:32:22 10° N 21:35:43 37° NNW 21:35:43 37° NNW
CENTAUR R/B 4.3 21:31:32 10° N 21:40:24 48° ENE 21:49:23 10° SE
Delta 7925 Rocket 4.3 21:42:06 41° E 21:42:06 41° E 21:45:22 10° ENE
Cosmos 2237 4.1 21:49:17 83° N 21:49:17 83° N 21:54:48 10° NNE
GPS 2-15 Rocket1 3.4 21:57:00 65° NE 21:57:00 65° NE 22:01:11 10° ENE
DNEPR-1 R/B 4.4 21:56:51 43° E 21:56:51 43° E 22:00:29 10° NE
H-2A R/B 3.4 21:53:52 10° N 21:56:40 26° NW 21:56:40 26° NW
Cosmos 1980 Rocket 3.7 22:01:16 22° NW 22:01:16 22° NW 22:04:24 10° NNW
ADEOS II 2.9 21:59:15 10° N 22:03:08 37° NW 22:03:08 37° NW
Cosmos 2297 Rocket 2.9 21:58:37 10° NNW 22:02:15 37° NW 22:02:15 37° NW
ARGOS 3.0 22:01:14 10° N 22:06:36 79° WNW 22:07:16 68° SW
AQUA 3.8 22:02:05 10° NNE 22:06:44 72° ESE 22:07:19 63° SSE
FALCON 9 R/B 3.6 22:09:19 11° E 22:09:19 11° E 22:09:27 10° E
Cosmos 2228 3.9 22:03:35 10° N 22:06:16 38° NNW 22:06:16 38° NNW
GPS 2-17 Rocket1 4.0 22:09:33 33° SE 22:09:33 33° SE 22:12:29 10° E
Delta 168 3.0 22:11:20 67° E 22:11:20 67° E 22:15:45 10° ENE
EPKM 3.9 22:12:57 19° N 22:12:57 19° N 22:15:31 10° NE
NOSS 3-4 (A) 4.1 22:10:43 25° SSE 22:13:00 38° ESE 22:17:46 10° NE
Cosmos 1864 Rocket 4.4 22:07:20 10° N 22:13:29 88° E 22:17:32 23° S
NOSS 3-4 (C) 4.2 22:11:22 25° SSE 22:13:45 37° ESE 22:18:32 10° NE
H-2A R/B 3.1 22:10:38 10° NNE 22:14:39 40° E 22:16:28 26° SSE
CZ-2C R/B 3.7 22:13:57 10° NNE 22:18:33 38° E 22:22:32 14° SSE
Cosmos 1536 Rocket 3.4 22:22:25 63° SSW 22:23:05 84° W 22:27:29 10° N
Cosmos 2263 Rocket 3.4 22:18:05 10° N 22:23:21 41° ENE 22:28:37 10° SE
Cosmos 2360 Rocket 3.7 22:20:04 11° SSE 22:24:56 33° ESE 22:29:56 10° NE
Resurs 1-4 Rocket 4.2 22:27:45 10° NW 22:28:35 11° WNW 22:28:35 11° WNW
Cosmos 1743 3.0 22:29:50 40° ESE 22:30:13 43° E 22:33:02 10° NNE
USA 234 4.1 22:25:16 10° NNE 22:31:05 36° NW 22:33:45 26° W
IUS-13 SRM-1 3.9 22:30:21 15° NNW 22:31:15 17° N 22:34:05 10° NE
SL-16 R/B 2.1 22:29:42 34° SSW 22:32:17 83° WNW 22:37:56 10° NNE
Spot 2 3.9 22:30:39 34° S 22:32:26 73° WSW 22:36:35 10° NNW
Cosmos 1459 Rocket 4.5 22:30:32 10° NNW 22:36:16 39° W 22:38:15 31° SW
Cosmos 841 Rocket 4.4 22:34:25 10° NW 22:37:58 28° W 22:37:58 28° W
Cosmos 2061 Rocket 4.2 22:36:22 10° N 22:42:39 73° E 22:48:52 10° S
Mugunghwa Rocket 4.4 22:40:58 30° WSW 22:42:57 37° SSW 22:48:58 10° SE
Cosmos 2333 Rocket 2.1 22:40:33 27° SSW 22:43:40 73° WNW 22:49:19 10° NNE
Cosmos 2278 3.6 22:40:53 22° SSW 22:44:37 88° WNW 22:50:20 10° NNE
Palapa B4 Rocket 4.3 22:41:45 22° W 22:46:25 45° SSW 22:51:35 10° SE
SL-08 R/B 4.5 22:47:34 10° NNW 22:53:31 57° W 22:59:26 10° S
RESURS DK-1 4.3 22:52:05 10° SSE 22:55:19 25° ESE 22:58:33 10° NE
Fermi 3.6 22:53:38 16° WNW 22:56:38 80° NNE 23:00:31 10° ESE
Cosmos 2016 Rocket 4.3 22:51:13 10° NNW 22:57:07 44° W 23:03:05 10° SSW
SL-16 R/B 2.7 22:53:07 10° SSE 22:59:18 78° ENE 23:05:27 10° N
Cosmos 1892 Rocket 3.5 22:57:17 10° S 23:01:34 83° E 23:05:51 10° N
Tiangong -1.6 23:08:57 22° WSW 23:10:35 45° NW 23:13:37 10° NE
Cosmos 2098 Rocket 3.6 23:08:44 10° N 23:13:32 77° E 23:18:55 10° S
H-2A R/B 4.1 23:15:22 13° W 23:15:22 13° W 23:16:47 10° WNW
Cosmos 44 4.2 23:14:40 16° WSW 23:18:04 34° WNW 23:22:45 10° N
Cosmos 2227 Rocket 3.0 23:13:30 10° NW 23:18:12 28° WSW 23:22:55 10° SSW
SeaSat 1 2.6 23:14:32 10° S 23:19:15 50° WSW 23:23:59 10° NW
Lacrosse 5 rocket 0.7 23:16:49 10° NNW 23:20:05 81° NE 23:23:17 10° SE
Cosmos 2322 Rocket 2.4 23:16:26 10° SSW 23:21:52 54° WNW 23:27:22 10° N
Cosmos 1606 Rocket 3.5 23:25:47 10° N 23:30:10 72° W 23:34:34 10° S
CENTAUR R/B 4.0 23:22:50 10° NW 23:30:57 33° WSW 23:38:57 10° S
SEDSat Delta rocket 4.1 23:26:32 10° WSW 23:32:46 62° NNW 23:38:28 10° NE
Okean 1 3.3 23:30:48 10° NNW 23:34:08 44° W 23:37:27 10° SSW
NOAA 12 4.1 23:30:13 10° N 23:35:30 81° WNW 23:40:48 10° SSW
Delta 7925 Rocket 4.5 23:31:11 10° W 23:35:40 38° N 23:40:55 10° ENE
Cosmos 1939 Rocket 3.6 23:32:56 10° NNW 23:36:11 30° WNW 23:39:24 10° SW
GPS 2-15 Rocket1 3.7 23:35:36 10° W 23:40:18 56° N 23:45:02 10° ENE
Cosmos 1814 Rocket 4.4 23:37:22 10° NNW 23:42:15 41° W 23:47:05 10° S
USA 281 3.2 23:36:13 10° SSE 23:42:46 81° WSW 23:49:21 10° NNW
Cosmos 1626 Rocket 3.8 23:41:14 10° S 23:45:34 77° E 23:49:56 10° N
Cosmos 2219 3.3 23:41:42 10° NNW 23:47:16 59° WSW 23:52:52 10° S
